History for DABS

Tebessa, Algeria

Daily Weekly Monthly
Daily Summary for Tuesday, May 26, 2015
  Actual: Average: Record:
Temperature
Mean Temperature: 56 °F / 13 °C - :  
Max Temperature: 61 °F / 16 °C 86 °F / 30 °C - ()
Min Temperature: 50 °F / 10 °C 57 °F / 13 °C - ()
Degree Days
Heating Degree Days: 10    
Growing Degree Days 6 (Base 50)    
Moisture
Dew Point 50 °F / 10 °C    
Average Humidity 82    
Maximum Humidity 94    
Minimum Humidity 60    
Precipitation
Precipitation 0.00 in / 0.0 cm 0.04 in / 1.1 cm - ()
Sea Level Pressure
Sea Level Pressure 29.95 in / 1014.00 hPa   
Wind
Wind Speed 3 mph / 5 km/h ()  
Max Wind Speed 20 mph / 32 km/h   
Max Gust Speed -   
Visibility 5.3 miles / 8.5 kilometers   
Events     

Key: T is trace of precipitation, MM is missing value
Source: Averaged Metar Reports

Graphs

Observations

History Graphs Observations

Obs Go Here...

Features

Weather Apps

WunderRadio

Weather Underground Apps
Check out our wide variety of mobile and setup applications.

Weather Underground Applications

Top of Page

Copyright© 2015
Weather Underground, Inc.
Time(CET)TemperatureDew PointHumidity Sea Level Pressure Visibility Wind DirectionWind SpeedGust SpeedPrecipitationEvents Conditions
12:00 AM 59.0 °F / 15.0 °C 50.0 °F / 10.0 °C 72% 29.92 in / 1013 hPa - Calm Calm - N/A   Clear
12:30 AM 57.2 °F / 14.0 °C 50.0 °F / 10.0 °C 77% 29.92 in / 1013 hPa - Calm Calm - N/A   Clear
1:00 AM 56 °F / 13 °C 49 °F / 10 °C 71%  in /  hPa 6 miles / 10 kilometers Calm Calm - -   Clear
1:00 AM 55.4 °F / 13.0 °C 50.0 °F / 10.0 °C 82% 29.92 in / 1013 hPa - Calm Calm - N/A   Clear
2:00 AM 53.6 °F / 12.0 °C 50.0 °F / 10.0 °C 88% 29.92 in / 1013 hPa - Calm Calm - N/A   Clear
2:30 AM 53.6 °F / 12.0 °C 50.0 °F / 10.0 °C 88% 29.92 in / 1013 hPa - Calm Calm - N/A   Clear
3:00 AM 53.6 °F / 12.0 °C 50.0 °F / 10.0 °C 88% 29.92 in / 1013 hPa - Calm Calm - N/A   Clear
3:30 AM 53.6 °F / 12.0 °C 50.0 °F / 10.0 °C 88% 29.92 in / 1013 hPa - Calm Calm - N/A   Clear
4:00 AM 52 °F / 11 °C 48 °F / 9 °C 81%  in /  hPa 6 miles / 10 kilometers Calm Calm - -   Clear
4:00 AM 51.8 °F / 11.0 °C 48.2 °F / 9.0 °C 88% 29.92 in / 1013 hPa - Calm Calm - N/A   Clear
4:30 AM 51.8 °F / 11.0 °C 48.2 °F / 9.0 °C 88% 29.95 in / 1014 hPa - Calm Calm - N/A   Clear
5:00 AM 51.8 °F / 11.0 °C 48.2 °F / 9.0 °C 88% 29.95 in / 1014 hPa 5.0 miles / 8.0 kilometers Calm Calm - N/A   Partly Cloudy
5:30 AM 50.0 °F / 10.0 °C 48.2 °F / 9.0 °C 94% 29.95 in / 1014 hPa 5.0 miles / 8.0 kilometers Calm Calm - N/A   Scattered Clouds
6:00 AM 50.0 °F / 10.0 °C 48.2 °F / 9.0 °C 94% 29.95 in / 1014 hPa 5.0 miles / 8.0 kilometers SE 11.5 mph / 18.5 km/h - N/A   Scattered Clouds
6:30 AM 50.0 °F / 10.0 °C 48.2 °F / 9.0 °C 94% 29.95 in / 1014 hPa 5.0 miles / 8.0 kilometers SSE 11.5 mph / 18.5 km/h - N/A   Scattered Clouds
7:00 AM 55 °F / 13 °C 51 °F / 10 °C 81%  in /  hPa 5 miles / 8 kilometers SSE 9.2 mph / 14.8 km/h - -   Mostly Cloudy
7:00 AM 55.4 °F / 13.0 °C 51.8 °F / 11.0 °C 88% 29.98 in / 1015 hPa 5.0 miles / 8.0 kilometers SSE 9.2 mph / 14.8 km/h - N/A   Scattered Clouds
7:30 AM 57.2 °F / 14.0 °C 51.8 °F / 11.0 °C 82% 29.98 in / 1015 hPa 5.0 miles / 8.0 kilometers South 6.9 mph / 11.1 km/h - N/A   Scattered Clouds
8:00 AM 59.0 °F / 15.0 °C 51.8 °F / 11.0 °C 77% 29.98 in / 1015 hPa 5.0 miles / 8.0 kilometers South 6.9 mph / 11.1 km/h - N/A   Scattered Clouds
8:30 AM 59.0 °F / 15.0 °C 51.8 °F / 11.0 °C 77% 29.98 in / 1015 hPa 5.0 miles / 8.0 kilometers SE 16.1 mph / 25.9 km/h - N/A   Scattered Clouds
9:00 AM 59.0 °F / 15.0 °C 51.8 °F / 11.0 °C 77% 29.98 in / 1015 hPa 5.0 miles / 8.0 kilometers NW 16.1 mph / 25.9 km/h - N/A   Mostly Cloudy
9:30 AM 59.0 °F / 15.0 °C 51.8 °F / 11.0 °C 77% 29.98 in / 1015 hPa 5.0 miles / 8.0 kilometers NW 18.4 mph / 29.6 km/h - N/A   Mostly Cloudy
10:00 AM 61 °F / 16 °C 51 °F / 10 °C 60%  in /  hPa 6 miles / 10 kilometers NW 19.6 mph / 31.5 km/h - -   Mostly Cloudy
10:00 AM 60.8 °F / 16.0 °C 50.0 °F / 10.0 °C 68% 30.01 in / 1016 hPa 6.2 miles / 10.0 kilometers NW 19.6 mph / 31.5 km/h - N/A   Mostly Cloudy